TimeMST,TemperatureF,Dew PointF,Humidity,Sea Level PressureIn,VisibilityMPH,Wind Direction,Wind SpeedMPH,Gust SpeedMPH,PrecipitationIn,Events,Conditions,WindDirDegrees,DateUTC
12:53 AM,28.9,21.9,75,30.28,10.0,Calm,Calm,-,N/A,,Clear,0,2013-02-12 07:53:00
1:53 AM,26.1,21.0,81,30.29,10.0,ESE,3.5,-,N/A,,Clear,120,2013-02-12 08:53:00
2:53 AM,26.1,19.9,78,30.29,10.0,SE,4.6,-,N/A,,Clear,130,2013-02-12 09:53:00
3:53 AM,27.0,19.9,75,30.29,10.0,SE,4.6,-,N/A,,Clear,130,2013-02-12 10:53:00
4:53 AM,28.0,21.0,75,30.30,10.0,SE,5.8,-,N/A,,Overcast,130,2013-02-12 11:53:00
5:53 AM,28.0,21.9,78,30.32,10.0,Calm,Calm,-,N/A,,Mostly Cloudy,0,2013-02-12 12:53:00
6:53 AM,28.9,21.9,75,30.35,10.0,Calm,Calm,-,N/A,,Overcast,0,2013-02-12 13:53:00
7:53 AM,28.0,21.9,78,30.36,10.0,SE,3.5,-,N/A,,Mostly Cloudy,140,2013-02-12 14:53:00
8:53 AM,30.0,21.9,72,30.37,10.0,SE,4.6,-,N/A,,Clear,140,2013-02-12 15:53:00
9:53 AM,35.1,25.0,67,30.38,10.0,Calm,Calm,-,N/A,,Overcast,0,2013-02-12 16:53:00
10:53 AM,37.9,25.0,60,30.39,10.0,Calm,Calm,-,N/A,,Overcast,0,2013-02-12 17:53:00
11:53 AM,37.9,25.0,60,30.41,10.0,NW,3.5,-,N/A,,Overcast,310,2013-02-12 18:53:00
12:53 PM,39.9,27.0,60,30.40,10.0,NW,8.1,-,N/A,,Overcast,320,2013-02-12 19:53:00
1:53 PM,43.0,28.9,58,30.38,10.0,WNW,6.9,-,N/A,,Overcast,290,2013-02-12 20:53:00
2:53 PM,44.1,28.9,55,30.37,10.0,NW,9.2,-,N/A,,Overcast,320,2013-02-12 21:53:00
3:53 PM,44.1,28.9,55,30.35,10.0,NNW,11.5,-,N/A,,Overcast,340,2013-02-12 22:53:00
4:53 PM,45.0,27.0,49,30.36,10.0,NNW,15.0,-,N/A,,Mostly Cloudy,330,2013-02-12 23:53:00
5:53 PM,42.1,27.0,55,30.37,10.0,NNW,9.2,-,N/A,,Clear,330,2013-02-13 00:53:00
6:53 PM,39.0,27.0,62,30.37,10.0,North,5.8,-,N/A,,Clear,360,2013-02-13 01:53:00
7:53 PM,37.0,27.0,67,30.38,10.0,Calm,Calm,-,N/A,,Clear,0,2013-02-13 02:53:00
8:53 PM,34.0,27.0,75,30.39,10.0,WSW,4.6,-,N/A,,Mostly Cloudy,250,2013-02-13 03:53:00
9:53 PM,36.0,28.0,73,30.38,10.0,Calm,Calm,-,N/A,,Overcast,0,2013-02-13 04:53:00
10:53 PM,35.1,28.0,76,30.38,10.0,East,4.6,-,N/A,,Mostly Cloudy,80,2013-02-13 05:53:00
11:53 PM,33.1,28.0,82,30.38,10.0,ESE,3.5,-,N/A,,Overcast,120,2013-02-13 06:53:00